Regional Weather Roundup
Issued by NWS

Home | Current Version | Previous Version | Text Only | Print | Product List | Glossary On
Versions: 1 2 3 4 5 6 7 8 9 10 11 12 13 14 15 16 17 18 19 20 21 22 23 24 25 26 27 28 29 30 31 32 33 34 35 36 37 38 39 40 41 42 43 44 45 46 47 48 49 50
000
ASUS45 KABQ 272210
RWRNM
NEW MEXICO REGIONAL WEATHER ROUNDUP
NATIONAL WEATHER SERVICE ALBUQUERQUE NM
300 PM MST MON FEB 27 2017

NOTE: "FAIR" MEANS FEW OR NO CLOUDS BELOW 12,000 FEET AGL WITH NO
       SIGNIFICANT WEATHER OR OBSTRUCTIONS TO VISION.

      THIS PRODUCT IS RELEASED AS TWO VERSIONS.  ONE VERSION NEAR
      THE TOP OF THE HOUR CONTAINING PRELIMINARY DATA FROM ALBUQUERQUE
      AND OTHER STATIONS.  A FINAL VERSION WITH ADDITIONAL DATA IS
      ISSUED ABOUT 10 MINUTES AFTER THE HOUR.

NMZ501-503-504-510>518-272300-
NORTHWEST PLATEAU/NORTHCENTRAL MOUNTAINS

CITY           SKY/WX    TMP DP  RH WIND       PRES   REMARKS
FARMINGTON     CLOUDY    47  18  31 W18       29.82S
LOS ALAMOS     FAIR      46  17  31 SW15G23   29.88F
SANTA FE       FAIR      51  18  27 SW15G25   29.86F
TAOS           FAIR      45  18  33 W12       29.88S
ANGEL FIRE     FAIR      38  13  35 W21G32    29.87S WCI  28

$$
NMZ402-403-502-505>509-272300-
WESTCENTRAL MOUNTAINS/SOUTHWEST MOUNTAINS

CITY           SKY/WX    TMP DP  RH WIND       PRES   REMARKS
GALLUP         CLOUDY    44  28  53 SW17G25   29.87F
GRANTS         FAIR      52  18  25 W17G32    29.88F
SILVER CITY    FAIR      58  19  22 W16G22    29.96F

$$
NMZ407-409-411-412-272300-
SOUTHERN DESERTS

CITY           SKY/WX    TMP DP  RH WIND       PRES   REMARKS
DEMING         FAIR      64  24  21 W15G26    29.93F
LAS CRUCES     FAIR      67  15  13 W24G33    29.93F
HOLLOMAN AFB   FAIR      66  19  16 S14       29.95F
ALAMOGORDO     FAIR      64  18  16 W9        29.93F
T OR C         FAIR      66   0   7 W22G28    29.85F

$$
NMZ519>523-272300-
CENTRAL VALLEYS/CENTRAL HIGHLANDS

CITY           SKY/WX    TMP DP  RH WIND       PRES   REMARKS
ALBUQUERQUE    PTSUNNY   57  18  21 W8        29.83F
DOUBLE EAGLE   PTSUNNY   54  18  24 SW12      29.86F
MORIARTY ARPT  FAIR      59  17  18 SW20      29.86F
CLINES CORNERS FAIR      53  12  19 W22G37    29.87F
BELEN          FAIR      61   8  12 SW14G23   29.82F
SOCORRO        FAIR      65  12  13 SE14G24   29.83F

$$
NMZ524>526-539-540-272300-
SOUTHCENTRAL MOUNTAINS

CITY           SKY/WX    TMP DP  RH WIND       PRES   REMARKS
RUIDOSO        FAIR      54   7  15 SW28      29.91S

$$
NMZ527>531-272300-
NORTHEAST HIGHLANDS/NORTHEAST PLAINS

CITY           SKY/WX    TMP DP  RH WIND       PRES   REMARKS
LAS VEGAS      FAIR      50  11  20 W37G45    29.82F
RATON          FAIR      56   1  10 W25G49    29.72F
CLAYTON        FAIR      66  12  12 SW32G44   29.66S

$$
NMZ532>537-272300-
EASTCENTRAL PLAINS

CITY           SKY/WX    TMP DP  RH WIND       PRES   REMARKS
TUCUMCARI      FAIR      71  12  10 W22       29.73F
CANNON AFB     FAIR      68  12  11 W28G36    29.79F
CLOVIS AIRPORT FAIR      68  18  14 SW20G30   29.80F

$$
NMZ028-029-538-272300-
SOUTHEAST PLAINS

CITY           SKY/WX    TMP DP  RH WIND       PRES   REMARKS
ROSWELL        FAIR      76  -2   4 W20G28    29.78
ARTESIA        FAIR      72  19  14 SW31G38   29.82S
CARLSBAD       FAIR      72  18  13 W21       29.83F
HOBBS          SUNNY     72  16  12 SW15G24   29.85F


$$



USA.gov is the U.S. government's official web portal to all federal, state and local government web resources and services.